INTELSAT 17 (IS-17)

Last updated on Tue Sep 22 2026 00:03:12 GMT+0000 (Coordinated Universal Time)

1 37238U 10065B 26264.50215741 -.00000006 00000+0 00000+0 0 9995 2 37238 0.0167 223.8685 0002497 322.7812 60.5158 1.00272622 54219
UTC large
Height (km)
Speed (km/s)
/
Latitude / Longitude
Inclination (degrees)
Orbital Period (minutes)
Azimuth
Elevation
Range (km)
Doppler Factor

Next 0 passes for location: London (51.5072 / 0.1276)

No passes found over London.
INTELSAT 17 (IS-17)